# Land Stadt Wetter Temperatur Luftdruck Luftfeuchtigkeit Sichtweite Windgeschwindigkeit Windrichtung Ortszeit
1 et Addis Abeba Clouds 20 1012 22 10000 17 141 02.08.2018 14:23
2 tr Alanya Clouds 11 1015 56 10000 34 250 02.08.2018 14:22
3 au Alice Springs Clouds 28 1006 69 10000 13 80 02.08.2018 14:21
4 ru Amderma Clouds -15 1019 90 10000 35 205 02.08.2018 14:23
5 ru Anadyr Snow -26 996 75 9000 13 360 02.08.2018 14:23
6 ch Andermatt Clear 2 1028 60 10000 5 38 02.08.2018 14:23
7 ad Andorra la Vella Clear 8 1023 40 10000 7 193 02.08.2018 14:22
8 tr Ankara Snow -3 1008 72 8000 20 310 02.08.2018 14:23
9 mg Antananarivo Rain 21 1013 78 10000 30 100 02.08.2018 14:21
10 gr Athen Clouds 5 1020 48 10000 10 90 02.08.2018 14:22
11 ck Avarua Clouds 27 1003 89 6000 28 320 02.08.2018 14:22
12 iq Bagdad Clear 14 1018 30 10000 15 100 02.08.2018 14:22
13 th Bangkok Clear 28 1009 58 10000 17 178 02.08.2018 14:21
14 es Barcelona Clouds 12 1027 64 10000 3 188 02.08.2018 14:22
15 de Berlin Clouds 6 1023 94 10000 10 298 02.08.2018 14:21
16 ch Bern Clear 3 1030 74 10000 11 280 02.08.2018 14:23
17 fr Bordeaux Clear 9 1028 59 10000 7 70 02.08.2018 14:21
18 de Braunschweig Clouds 7 1027 95 7000 5 0 02.08.2018 14:21
19 de Bremen Clouds 7 1034 94 10000 9 273 02.08.2018 14:22
20 ar Buenos Aires Rain 23 1011 80 10000 9 230 02.08.2018 14:22
21 ma Casablanca Clouds 22 1019 64 6000 18 320 02.08.2018 14:23
22 us Chicago Snow -8 1012 86 8047 18 13 02.08.2018 14:23
23 pe Cusco Clouds 10 1031 76 10000 6 80 02.08.2018 14:23
24 au Darwin Rain 25 1007 94 10000 13 230 02.08.2018 14:22
25 us Death Valley Clear 13 1026 32 10000 11 355 02.08.2018 14:22
26 us Denver Clouds -2 1026 65 10000 9 213 02.08.2018 14:21
27 qa Doha Clear 19 1019 33 10000 15 320 02.08.2018 14:23
28 de Dresden Clouds 5 1024 92 10000 13 300 02.08.2018 14:22
29 ae Dubai Clouds 22 1017 46 10000 17 320 02.08.2018 14:21
30 ie Dublin Clouds 7 1031 74 10000 3 1 02.08.2018 14:21
31 de Emden Clouds 7 1034 89 10000 9 249 02.08.2018 14:21
32 ar Esquel Clouds 13 1007 78 10000 16 297 02.08.2018 14:22
33 us Fairbanks Clouds -14 1007 86 10000 0 0 02.08.2018 14:23
34 de Flensburg Clouds 7 1032 87 10000 20 280 02.08.2018 14:21
35 de Frankfurt Clouds 7 1035 72 10000 4 0 02.08.2018 14:22
36 de Freiburg Clouds 6 1031 71 10000 2 109 02.08.2018 14:22
37 gb Glasgow Clouds 7 1032 82 10000 24 220 02.08.2018 14:21
38 de Hamburg Clouds 8 1033 93 10000 24 310 02.08.2018 14:21
39 no Hammerfest Rain 2 989 80 10000 26 210 02.08.2018 14:22
40 de Hannover Drizzle 7 943 96 3000 2 248 02.08.2018 14:21
41 vn Hanoi Clear 22 1011 93 10000 11 140 02.08.2018 14:21
42 de Helgoland Clouds 7 1034 88 10000 20 268 02.08.2018 14:22
43 fi Helsinki Mist 1 1021 88 4000 6 226 02.08.2018 14:21
44 de Hiddensee Clouds 7 1031 94 10000 16 285 02.08.2018 14:21
45 sb Honiara Clouds 27 1009 85 10000 6 245 02.08.2018 14:22
46 us Honolulu Clear 22 1017 77 10000 5 102 02.08.2018 14:22
47 at Innsbruck Clouds 4 1033 83 10000 9 170 02.08.2018 14:23
48 tr Istanbul Clouds 2 1019 60 10000 26 360 02.08.2018 14:23
49 in Jagatsukh Clouds 3 1013 98 104 7 222 02.08.2018 14:22
50 id Jakarta Clouds 29 1009 70 6000 9 210 02.08.2018 14:22
51 ru Jakutsk Snow -27 1024 75 10000 6 10 02.08.2018 14:22
52 af Kabul Clear -8 1024 71 10000 9 218 02.08.2018 14:21
53 eg Kairo Clouds 17 1017 42 10000 24 270 02.08.2018 14:22
54 za Kapstadt Clear 30 1013 59 10000 17 140 02.08.2018 14:22
55 de Kassel Clouds 6 1034 87 10000 13 310 02.08.2018 14:21
56 ua Kiew Clouds -4 1024 73 10000 21 10 02.08.2018 14:21
57 cd Kisangani Clouds 31 1005 45 10000 2 118 02.08.2018 14:23
58 de Köln Clouds 6 1029 83 8000 2 54 02.08.2018 14:21
59 bo La Paz Clouds 10 1037 81 6000 7 150 02.08.2018 14:22
60 es Las Palmas de Gran Canaria Clouds 20 1020 67 10000 6 79 02.08.2018 14:21
61 us Las Vegas Clear 7 1025 37 10000 2 229 02.08.2018 14:21
62 cn Lhasa Clouds -2 1004 42 10000 9 178 02.08.2018 14:22
63 pt Lissabon Clear 14 1018 57 10000 17 50 02.08.2018 14:22
64 gb London Clouds 6 1035 76 10000 2 119 02.08.2018 14:22
65 us Los Angeles Clear 13 1021 40 10000 0 0 02.08.2018 14:22
66 es Madrid Clouds 9 1012 63 10000 6 113 02.08.2018 14:23
67 de Magdeburg Clouds 7 1029 89 10000 6 306 02.08.2018 14:22
68 it Mailand Mist 7 1030 74 3500 2 98 02.08.2018 14:21
69 mv Male Clouds 29 1009 74 10000 9 350 02.08.2018 14:23
70 br Manaus Clouds 25 1013 94 10000 7 100 02.08.2018 14:21
71 gb Manchester Clouds 5 1033 84 10000 5 313 02.08.2018 14:21
72 ph Manila Clouds 27 1010 76 10000 11 140 02.08.2018 14:21
73 ma Marrakesch Clouds 23 1019 33 8000 13 330 02.08.2018 14:23
74 mx Mexiko Stadt Clouds 10 1013 80 10000 3 79 02.08.2018 14:21
75 us Miami Clouds 15 1018 91 10000 11 300 02.08.2018 14:23
76 uy Montevideo Clouds 24 1010 94 8000 13 120 02.08.2018 14:22
77 ca Montreal Clouds -10 1008 85 10000 6 150 02.08.2018 14:22
78 ru Moskau Clouds -4 1031 98 6546 4 54 02.08.2018 14:22
79 in Mumbai Smoke 21 1013 56 2500 13 330 02.08.2018 14:22
80 de München Clouds 3 1034 87 10000 5 37 02.08.2018 14:21
81 jp Nagasaki Clouds 9 1014 100 10000 17 20 02.08.2018 14:21
82 in Nagpur Haze 20 1011 42 4000 9 310 02.08.2018 14:21
83 ke Nairobi Clouds 26 1017 36 10000 19 90 02.08.2018 14:22
84 bs Nassau Clouds 23 1017 83 10000 11 340 02.08.2018 14:22
85 us New York Clouds -3 1015 49 10000 2 182 02.08.2018 14:22
86 fr Nizza Clouds 13 1027 70 10000 7 180 02.08.2018 14:22
87 us Nome Clouds -13 1006 78 10000 19 70 02.08.2018 14:23
88 de Nürnberg Clouds 4 1034 84 10000 7 10 02.08.2018 14:21
89 gl Nuuk Clouds -8 1007 84 10000 12 136 02.08.2018 14:22
90 de Oberstdorf Clouds 2 1032 85 10000 6 41 02.08.2018 14:21
91 no Oslo Clouds 0 999 61 10000 1 228 02.08.2018 14:23
92 it Palermo Clear 13 1022 43 10000 2 3 02.08.2018 14:22
93 es Palma de Mallorca Clouds 13 1027 56 10000 3 187 02.08.2018 14:22
94 fr Paris Clouds 4 1033 86 10000 3 68 02.08.2018 14:22
95 cn Peking Clouds -2 1030 67 10000 1 287 02.08.2018 14:23
96 au Perth Clear 24 1008 72 10000 24 210 02.08.2018 14:21
97 pg Port Moresby Clouds 25 1008 85 10000 6 25 02.08.2018 14:21
98 bo Potisi Clouds 7 1017 72 10000 1 54 02.08.2018 14:22
99 is Reykjavik Clouds -2 991 86 700 48 240 02.08.2018 14:22
100 sa Riad Clear 20 1017 21 10000 15 124 02.08.2018 14:21
101 br Rio de Janeiro Clear 29 1012 64 10000 7 350 02.08.2018 14:22
102 it Rom Clear 12 1029 51 10000 2 0 02.08.2018 14:23
103 fi Rovaniemi Clear 1 1005 100 10000 26 230 02.08.2018 14:21
104 ec San Cristobal Clouds 23 1013 86 10000 12 148 02.08.2018 14:22
105 cl Santiago Clear 21 914 41 10000 0 0 02.08.2018 14:23
106 do Santo Domingo Clouds 22 1016 84 10000 5 31 02.08.2018 14:21
107 kr Seoul Clear -2 1021 72 6000 4 330 02.08.2018 14:21
108 es Sevilla Clear 17 1021 54 10000 10 79 02.08.2018 14:22
109 cn Shanghai Rain 9 1014 81 10000 2 28 02.08.2018 14:21
110 bg Sofia Clouds -3 1001 63 10000 18 293 02.08.2018 14:21
111 se Stockholm Clear 1 1022 88 10000 9 250 02.08.2018 14:23
112 de Stuttgart Clouds 5 1033 81 10000 7 50 02.08.2018 14:22
113 ru Surgut Snow -12 1033 85 8000 4 230 02.08.2018 14:23
114 fj Suva Clouds 25 1007 94 10000 9 340 02.08.2018 14:21
115 au Sydney Clouds 19 1014 93 10000 8 290 02.08.2018 14:22
116 es Tarifa Clouds 15 1022 76 10000 42 88 02.08.2018 14:21
117 jp Tokio Clouds 6 1016 62 10000 6 310 02.08.2018 14:22
118 de Torfhaus Clouds 2 1035 92 9298 6 290 02.08.2018 14:22
119 de Trier Clouds 5 1034 75 10000 10 80 02.08.2018 14:21
120 us Tucson Clear 8 1018 66 10000 8 121 02.08.2018 14:21
121 mn Ulaanbaatar Clouds -17 1018 85 6000 4 0 02.08.2018 14:23
122 mn Uliastai Clouds -24 1046 97 3272 8 77 02.08.2018 14:23
123 ar Ushuaia Clouds 9 990 93 10000 0 0 02.08.2018 14:22
124 mx Veracruz Clouds 19 1021 82 10000 9 340 02.08.2018 14:21
125 bg Warna Clouds 1 1020 69 10000 24 320 02.08.2018 14:21
126 nz Wellington Haze 16 1014 88 5000 2 190 02.08.2018 14:23
127 ru Werchojansk Clouds -35 1026 100 5226 2 199 02.08.2018 14:22
128 at Wien Clouds 3 1031 89 3500 5 347 02.08.2018 14:22